GW1144 Weather Reports


Display with metric or nautical units.
time (UTC)temp
F
wind
direction
speed
MPH
gust
MPH
rain 1hr
in
rain 24hr
in
rain mn
in
humidity
%
barometer
mb
20260906183054 82 171 2.0 8.0 0.00 0.00 0.00 70 1017.8
20260906181603 82 126 3.0 7.0 0.00 0.00 0.00 70 1017.9
20260906180100 81 0 1.0 6.0 0.00 0.00 0.00 70 1018.0
20260906174601 82 139 2.0 13.0 0.00 0.00 0.00 73 1018.0
20260906173104 81 132 1.0 6.0 0.00 0.00 0.00 72 1018.0
20260906171600 81 190 2.0 7.0 0.00 0.00 0.00 75 1018.0
20260906170056 81 173 1.0 9.0 0.00 0.00 0.00 73 1018.2
20260906164609 80 178 1.0 5.0 0.00 0.00 0.00 75 1018.6
20260906163104 80 34 1.0 6.0 0.00 0.00 0.00 76 1018.6
20260906161608 79 76 2.0 6.0 0.00 0.00 0.00 75 1018.7
20260906160103 78 168 2.0 8.0 0.00 0.00 0.00 79 1018.8
20260906154559 77 77 1.0 7.0 0.00 0.00 0.00 82 1018.8
20260906153101 76 130 1.0 4.0 0.00 0.00 0.00 83 1018.9
20260906151602 75 187 0.0 7.0 0.00 0.00 0.00 84 1019.2
20260906150057 73 135 1.0 9.0 0.00 0.00 0.00 86 1019.0
20260906144624 72 121 2.0 7.0 0.00 0.00 0.00 88 1019.3
20260906143113 71 90 1.0 7.0 0.00 0.00 0.00 90 1019.3
20260906141557 71 129 0.0 5.0 0.00 0.00 0.00 91 1019.0
20260906140103 69 110 1.0 5.0 0.00 0.00 0.00 93 1018.8
20260906134558 69 132 1.0 3.0 0.00 0.00 0.00 94 1019.1
20260906133104 68 98 0.0 5.0 0.00 0.00 0.00 95 1018.8
20260906131605 67 112 1.0 6.0 0.00 0.00 0.00 96 1018.9
20260906130056 66 55 1.0 3.0 0.00 0.00 0.00 95 1018.8
20260906124605 66 59 0.0 4.0 0.00 0.00 0.00 95 1018.7
20260906123106 65 96 1.0 4.0 0.00 0.00 0.00 95 1018.5
20260906121555 65 0 1.0 3.0 0.00 0.00 0.00 95 1018.4
20260906120117 65 103 1.0 2.0 0.00 0.00 0.00 95 1018.4
20260906114555 65 74 1.0 2.0 0.00 0.00 0.00 95 1018.5
20260906113054 65 0 0.0 2.0 0.00 0.00 0.00 95 1018.6
20260906111554 65 86 0.0 2.0 0.00 0.00 0.00 95 1018.6
20260906110100 65 74 1.0 3.0 0.00 0.00 0.00 94 1018.6
20260906104604 65 80 1.0 3.0 0.00 0.00 0.00 94 1018.7
20260906103100 65 76 0.0 2.0 0.00 0.00 0.00 94 1018.6
20260906101556 66 0 0.0 1.0 0.00 0.00 0.00 94 1018.5
20260906100106 66 0 0.0 1.0 0.00 0.00 0.00 94 1018.3
20260906094601 66 0 0.0 2.0 0.00 0.00 0.00 93 1018.2
20260906093116 66 92 0.0 4.0 0.00 0.00 0.00 93 1017.9
20260906091604 66 46 1.0 4.0 0.00 0.00 0.00 93 1017.7
20260906090119 67 0 0.0 1.0 0.00 0.00 0.00 93 1017.7
20260906084559 67 0 0.0 3.0 0.00 0.00 0.00 92 1017.5
20260906083056 67 83 1.0 3.0 0.00 0.00 0.00 92 1017.6
20260906081601 68 90 1.0 3.0 0.00 0.00 0.00 92 1017.7
20260906080100 68 46 1.0 5.0 0.00 0.00 0.00 92 1017.6
20260906074555 68 79 1.0 4.0 0.00 0.00 0.00 92 1017.6
20260906073100 69 53 1.0 3.0 0.00 0.00 0.00 91 1017.7
20260906071610 69 0 0.0 1.0 0.00 0.00 0.00 92 1018.0
20260906070058 69 85 0.0 2.0 0.00 0.00 0.00 91 1018.1
20260906064555 69 0 0.0 1.0 0.00 0.00 0.00 91 1018.2
20260906063056 69 0 0.0 1.0 0.00 0.00 0.00 91 1018.2
20260906061558 69 76 0.0 2.0 0.00 0.00 0.00 91 1018.2
20260906060057 69 0 0.0 3.0 0.00 0.00 0.00 91 1018.1
20260906054600 69 0 0.0 2.0 0.00 0.00 0.00 90 1018.1
20260906053056 69 0 0.0 2.0 0.00 0.00 0.00 90 1018.0
20260906051557 70 0 0.0 4.0 0.00 0.00 0.00 89 1018.0
20260906050114 70 65 1.0 5.0 0.00 0.00 0.00 89 1018.0
20260906044558 70 0 0.0 2.0 0.00 0.00 0.00 89 1017.9
20260906043110 70 64 0.0 2.0 0.00 0.00 0.00 88 1017.9
20260906041556 70 80 0.0 2.0 0.00 0.00 0.00 87 1018.0
20260906040101 70 0 1.0 4.0 0.00 0.00 0.00 87 1018.1
20260906034600 70 65 1.0 2.0 0.00 0.00 0.00 87 1018.2
20260906033056 70 73 1.0 4.0 0.00 0.00 0.00 87 1018.2
20260906031557 70 76 0.0 3.0 0.00 0.00 0.00 87 1018.1
20260906030114 71 49 2.0 6.0 0.00 0.00 0.00 87 1018.2
20260906024555 71 0 0.0 3.0 0.00 0.00 0.00 87 1018.2
20260906023117 71 0 1.0 4.0 0.00 0.00 0.00 87 1018.3
20260906021611 71 0 0.0 3.0 0.00 0.00 0.00 86 1018.0
20260906020104 71 0 0.0 1.0 0.00 0.00 0.00 86 1017.9
20260906014602 72 73 0.0 3.0 0.00 0.00 0.00 84 1017.8
20260906013057 73 92 0.0 3.0 0.00 0.00 0.00 83 1017.3
20260906011554 74 0 0.0 4.0 0.00 0.00 0.00 82 1016.9
20260906010106 75 0 1.0 5.0 0.00 0.00 0.00 81 1016.5
20260906004600 75 82 1.0 5.0 0.00 0.00 0.00 79 1016.1
20260906003110 76 73 1.0 6.0 0.00 0.00 0.00 78 1015.9
20260906001558 76 92 1.0 6.0 0.00 0.00 0.00 77 1015.6
20260906000100 77 106 1.0 6.0 0.00 0.00 0.00 76 1015.6
20260905234615 78 0 2.0 7.0 0.00 0.00 0.00 75 1015.4
20260905233059 78 0 3.0 9.0 0.00 0.00 0.00 73 1015.3
20260905231600 79 113 2.0 11.0 0.00 0.00 0.00 73 1015.5
20260905230058 79 130 3.0 9.0 0.00 0.00 0.00 72 1015.8
20260905224556 80 90 3.0 8.0 0.00 0.00 0.00 71 1015.9
20260905223057 80 46 4.0 12.0 0.00 0.00 0.00 71 1015.8
20260905221602 81 97 2.0 10.0 0.00 0.00 0.00 69 1015.8
20260905220059 81 40 4.0 11.0 0.00 0.00 0.00 70 1015.9
20260905214611 81 102 5.0 11.0 0.00 0.00 0.00 70 1015.9
20260905213114 82 56 2.0 11.0 0.00 0.00 0.00 70 1015.8
20260905211557 82 93 4.0 10.0 0.00 0.00 0.00 70 1015.6
20260905210106 81 59 3.0 9.0 0.00 0.00 0.00 71 1015.8
20260905204602 81 28 3.0 12.0 0.00 0.00 0.00 71 1016.1
20260905203058 82 101 1.0 9.0 0.00 0.00 0.00 72 1016.2
20260905201607 80 53 2.0 9.0 0.00 0.00 0.00 73 1016.8
20260905194602 80 93 1.0 7.0 0.00 0.00 0.00 75 1017.5
20260905193059 79 57 2.0 7.0 0.00 0.00 0.00 76 1017.4
20260905191612 78 93 1.0 9.0 0.00 0.00 0.00 78 1017.7
20260905190054 77 38 2.0 6.0 0.00 0.00 0.00 78 1017.8
20260905184639 76 90 2.0 8.0 0.00 0.00 0.00 82 1017.8